Погода в Беглице

Россия / Ростовская область     47°08′41″N   38°34′20″E
темп.,
°C
ветер,
м/с
пор.,
м/с
влажн.,
%
обл.,
%
осадки,
мм/ч
давл.,
гПа
погр.,
м
1 декабря, ср
ср100:00+4с6795100 13.9 994438
03:00+2с71398100 20.3 995517
06:00+2зсз71193100 2.1 999825
09:00+2з611733 2.1 1004708
12:00+4зюз7106599 0.0 1005931
15:00+4юз51064100 0.0 10041115
18:00+3зюз51197100 4.3 1003683
21:00+3з611769 4.8 1005830
2 декабря, чт
чт200:00+3з5108214 0.0 1007417
03:00+2з498666 0.0 1010416
06:00+2з378166 0.0 1012310
09:00+1зюз36785 0.0 1014258
12:00+3зюз57645 0.0 1016684
15:00+5юз59715 0.0 1016664
18:00+4ю49845 0.0 1016217
21:00+6ююз614895 0.0 1016363
3 декабря, пт
пт300:00+6ююз7168747 0.0 1016466
03:00+6ююз6149042 0.0 1016409
06:00+6ю6139189 0.0 1016333
09:00+6ю61489100 0.0 1017388
12:00+8ю61280100 0.0 1017468
15:00+9ююв5107621 0.0 1016508
18:00+7ююв512750 0.0 1016291
21:00+7ю5147883 0.0 1015339
4 декабря, сб
сб400:00+7ю61680100 0.0 1015408
03:00+8ююз51682100 0.0 1015418
06:00+8ююз51482100 0.0 1014385
09:00+8ююз3983100 0.0 1015254
12:00+10юз31176100 0.0 1014357
15:00+10ююв357478 0.0 1013197
18:00+9юв3576100 0.0 101269
21:00+8вюв4765100 0.0 1011131
5 декабря, вс
вс500:00+7в4861100 0.0 1010142
03:00+7в4766100 0.0 1009120
06:00+6в4868100 0.0 1008158
09:00+6вюв4770100 0.0 1008136
12:00+8вюв4565100 0.0 1008149
15:00+9вюв4776100 0.1 1007185
18:00+8ююв4786100 0.6 1008216
21:00+8ююв51098100 4.0 1008309